Simultaneous Nadir Overpasses (SNOs) Predictions

Prediction of SNOs between GOES-16 and TERRA Satellite Orbit:

Table of predicted SNOs for the next 14.0 days since TLE Epoch: 11/4/2023
Index Date Time (GOES-16) GOES-16 Lat,Lon TERRA Lat,Lon Distance(km) Time Diff (sec)
1 11/06/2023 02:44:13 0.05, -75.20 0.76, -71.68 399.90 80
2 11/06/2023 15:04:20 -0.04, -75.23 0.26, -76.57 152.08 80
3 11/08/2023 14:47:42 -0.04, -75.25 -0.64, -72.56 306.73 80
4 11/09/2023 03:10:36 0.04, -75.23 -0.45, -77.47 255.14 80
5 11/11/2023 02:51:17 0.04, -75.25 0.42, -73.45 204.54 80
6 11/11/2023 15:11:23 -0.04, -75.29 0.59, -78.35 347.17 80
7 11/13/2023 14:57:24 -0.04, -75.32 -0.24, -74.32 113.02 80
8 11/14/2023 03:17:37 0.03, -75.30 -0.82, -79.24 448.34 80
9 11/16/2023 02:58:17 0.03, -75.32 0.06, -75.22 12.15 80
10 11/18/2023 02:41:36 0.02, -75.35 0.90, -71.19 472.97 80
